Helicity
93 53 25 44 85 80 47 13 151 37 58 22 20 103 142 94 100 143 216 331 494 567 534 432 492 555 527 454 331 280 356 418 441 321 271 255 304 176 139 129 108 129 154 246
104 110 124 78 143 74 69 98 85 39 41 34 47 112 213 195 115 162 255 336 427 420 365 410 446 408 379 346 340 437 463 438 375 296 310 267 256 233 125 93 117 151 205 241
122 118 96 65 30 54 60 76 76 52 51 58 100 102 88 180 178 164 229 290 293 268 311 350 385 419 445 528 556 498 419 395 323 304 242 264 148 87 79 114 152 179 184 198
101 114 121 32 51 70 43 62 96 136 117 153 167 168 179 190 146 212 237 278 323 391 483 532 600 664 704 641 536 460 447 430 386 355 123 80 63 74 120 144 132 125 136 183
122 110 65 32 82 66 56 106 108 124 115 129 146 189 262 197 203 215 226 246 302 408 531 632 645 655 700 678 618 553 578 505 269 105 83 44 66 79 111 136 123 131 167 215
151 111 41 28 73 113 107 123 154 181 142 86 111 110 118 185 231 274 319 376 493 588 653 712 723 770 804 741 693 630 507 162 73 44 45 78 83 81 120 139 144 170 197 198
179 125 82 70 112 103 125 89 171 175 153 129 102 72 150 322 406 454 478 531 636 720 759 772 772 725 657 627 593 273 105 129 63 58 78 107 136 107 124 156 169 254 255 195
148 122 62 96 143 111 101 157 157 167 117 117 133 196 353 352 438 520 588 690 720 758 712 645 610 558 485 301 98 103 79 46 52 67 88 137 122 117 131 145 199 224 200 171
82 56 62 137 144 177 209 231 192 164 185 145 130 233 333 403 462 540 556 548 529 520 494 405 305 188 129 131 94 59 70 60 69 80 96 121 158 182 163 140 173 184 210 188
113 61 139 342 350 293 242 207 198 209 169 150 189 383 439 499 490 441 405 371 297 277 241 205 136 115 131 90 48 62 72 71 76 95 108 142 206 201 183 173 174 178 181 168
106 239 392 391 370 291 260 262 312 317 277 244 412 537 589 523 461 355 289 249 231 223 187 162 142 105 66 53 56 85 91 101 136 138 141 170 186 211 215 195 172 172 183 168
155 223 255 283 293 373 414 369 308 303 364 399 459 458 440 380 324 281 243 225 186 155 150 109 86 76 75 63 82 110 150 166 176 191 204 213 220 213 178 171 170 122 92 124
229 303 376 433 475 406 403 361 320 317 300 324 330 333 319 275 234 212 157 120 96 109 127 134 103 78 67 73 89 140 191 214 242 247 257 266 280 288 228 194 139 112 96 85
284 347 354 303 322 359 346 327 324 295 264 275 274 223 189 174 160 182 190 197 182 159 138 116 99 89 78 65 89 122 159 191 252 285 307 315 306 278 286 272 211 177 145 123
333 314 394 379 332 290 267 252 269 241 243 277 301 296 276 255 243 233 177 160 138 127 111 94 91 93 115 130 136 150 171 194 220 243 258 269 288 257 317 303 227 188 156 139
342 398 369 318 273 254 222 187 228 261 283 288 253 236 221 208 206 197 164 144 132 118 88 102 117 120 121 121 123 128 151 160 166 179 188 200 231 239 257 210 191 128 140 124
377 288 270 249 210 248 270 283 285 272 236 220 207 189 196 180 172 165 142 111 95 93 142 122 125 106 100 111 135 163 171 184 175 175 152 159 192 299 212 145 114 128 171 140
226 199 196 241 330 331 335 319 281 243 219 186 175 169 165 157 136 115 99 91 104 137 156 129 110 94 93 140 161 130 135 157 164 154 139 128 165 141 96 68 106 145 103 99
245 261 334 345 299 298 265 246 237 213 191 161 166 151 121 112 101 86 81 110 128 114 95 80 101 134 130 105 124 142 158 161 153 147 137 138 144 150 105 118 120 140 135 86
456 431 432 367 305 259 238 200 193 202 166 140 124 139 129 112 94 106 107 116 137 100 106 142 136 105 102 119 136 147 198 190 161 154 140 152 115 124 97 102 96 93 69 53
367 338 309 292 277 259 226 184 164 160 131 112 118 116 109 90 111 97 103 101 104 111 109 140 121 118 110 119 112 125 120 129 140 168 171 147 66 43 60 79 115 96 84 88
238 238 234 234 236 221 175 153 128 105 108 99 99 107 104 104 101 102 92 114 103 117 103 116 118 145 134 105 100 105 94 99 114 122 129 120 104 101 110 98 84 83 94 96
206 199 198 192 182 161 130 112 88 76 86 77 79 87 84 78 86 82 86 130 115 131 145 125 126 136 127 108 95 97 89 65 90 110 114 96 76 82 75 55 44 49 61 61
224 221 202 168 132 144 162 107 91 100 95 83 62 63 82 76 78 114 124 141 154 168 156 138 119 104 89 90 90 92 98 92 76 80 86 85 76 68 49 33 32 46 54 57
201 183 166 189 202 176 173 162 146 148 149 142 127 111 102 96 91 90 131 136 153 146 132 128 116 95 73 70 76 89 88 83 81 80 78 79 76 61 48 43 44 55 51 51
246 271 273 248 205 190 165 165 161 140 136 131 104 111 117 117 136 144 151 164 146 130 115 94 101 94 82 71 74 84 75 77 72 77 64 65 68 66 59 56 54 52 50 60
263 210 208 217 176 168 168 148 145 140 116 95 86 122 151 158 161 162 174 164 149 129 106 92 102 98 90 83 84 77 66 69 66 72 63 41 48 54 51 53 51 53 59 51
Wind_Speed
51 54 53 51 40 46 49 46 35 47 41 55 52 14 13 14 18 14 11 11 8 5 4 6 11 14 18 22 25 28 33 34 38 41 47 50 55 57 58 62 58 59 61 54
52 51 53 53 49 56 66 62 57 57 52 44 28 28 23 25 20 24 15 9 8 4 8 12 15 17 21 23 27 30 33 38 41 47 50 56 57 60 62 62 62 61 60 57
48 45 52 68 59 58 63 58 59 61 56 47 32 29 28 33 39 30 17 16 14 12 13 15 16 18 21 24 27 32 36 41 47 52 55 56 61 59 60 62 65 67 59 62
35 36 51 45 42 30 35 37 35 33 35 33 32 35 38 41 33 33 25 23 21 18 19 20 20 21 22 26 30 35 39 43 49 54 56 55 60 62 62 62 67 72 71 68
36 33 50 58 35 32 32 36 36 32 32 35 37 40 46 42 37 31 26 24 23 21 21 21 22 23 26 32 34 38 45 49 54 49 55 58 62 67 66 67 70 74 66 63
33 39 46 36 25 31 31 31 38 37 39 38 40 45 46 39 36 33 31 28 26 25 26 26 28 29 32 38 42 49 46 52 46 53 54 58 63 69 67 68 72 69 63 62
32 36 45 41 25 31 36 36 35 38 40 40 42 38 34 36 38 35 33 31 29 30 31 32 33 35 40 43 49 50 44 48 51 50 56 58 62 68 75 79 77 66 66 66
29 35 46 19 27 34 28 27 30 36 37 38 36 37 34 35 36 35 34 35 33 32 34 36 38 41 46 52 42 44 49 49 50 53 56 55 64 70 73 78 72 69 69 68
22 28 28 23 19 23 26 31 36 38 41 39 34 32 31 33 33 36 35 35 35 36 38 40 41 46 46 44 47 46 48 53 56 57 59 60 64 67 73 77 75 74 68 66
25 29 20 19 24 27 30 35 39 43 43 42 40 29 28 31 34 35 36 38 38 40 43 47 44 43 41 44 44 46 52 56 56 60 63 63 62 66 71 74 72 69 66 63
32 24 21 30 32 31 33 35 38 45 46 40 30 32 31 33 34 36 39 41 43 45 45 46 47 48 45 46 46 51 54 55 57 63 67 67 66 66 68 65 61 64 60 56
39 32 29 29 32 28 32 35 37 39 42 40 33 31 33 36 37 39 42 43 42 43 46 51 50 52 51 52 53 56 57 60 65 67 66 68 70 71 61 59 56 54 53 50
32 24 21 24 29 29 32 35 36 37 36 36 36 34 35 36 37 39 39 40 43 47 51 55 59 61 60 60 60 59 64 66 67 68 70 75 71 68 71 68 59 57 54 50
18 18 27 30 30 29 31 33 34 35 35 35 35 36 35 36 36 41 46 48 52 56 59 62 64 66 71 74 74 74 74 75 76 78 78 75 69 65 66 70 75 68 56 52
30 29 20 20 24 27 28 29 31 33 34 37 39 40 40 41 45 49 51 55 57 60 63 67 71 73 73 75 77 80 81 83 83 82 79 75 70 70 69 67 66 61 60 58
21 20 21 23 24 24 26 28 29 33 33 37 39 41 43 44 46 50 54 60 64 68 69 70 72 71 77 80 84 87 88 89 91 89 86 81 76 75 62 67 59 58 63 64
19 25 22 24 22 24 29 28 27 31 33 36 38 41 44 46 50 55 59 63 65 67 68 71 75 80 84 87 92 92 92 91 89 89 92 87 75 65 61 62 57 59 61 56
21 20 19 18 19 22 25 27 29 31 34 35 38 43 47 53 56 59 64 66 68 66 75 78 84 87 88 91 94 95 95 91 92 92 90 82 65 56 55 51 53 55 54 52
18 16 17 18 19 22 23 24 28 32 35 37 42 47 50 54 58 63 66 70 71 79 81 83 88 86 93 96 98 96 94 92 89 84 81 76 57 49 47 51 55 56 56 61
16 16 17 19 22 20 22 25 28 34 38 40 44 51 55 59 63 66 68 67 75 78 83 84 84 91 94 94 96 93 96 94 87 81 70 70 61 53 58 61 61 63 64 64
14 15 16 17 20 23 26 28 32 37 40 44 50 55 58 60 64 68 70 73 76 79 80 78 86 91 89 93 91 90 87 87 85 81 77 74 68 65 64 61 60 59 60 62
13 13 15 17 21 25 29 32 35 39 42 46 52 57 60 63 66 67 68 75 73 79 75 79 84 91 89 88 86 86 83 83 81 78 76 72 68 66 63 61 60 60 62 62
13 14 16 19 23 27 29 33 37 42 45 49 54 59 62 64 66 72 78 71 72 76 74 78 84 88 86 82 82 81 80 81 81 77 72 69 67 65 63 62 62 63 63 64
14 17 20 21 22 30 35 35 38 45 47 50 54 58 61 65 66 66 65 68 72 75 76 78 80 81 81 79 77 79 78 76 76 75 73 70 68 65 64 63 63 63 63 64
17 19 20 24 29 33 38 41 43 49 52 54 59 60 61 61 64 65 67 68 71 74 76 76 76 75 75 75 75 75 73 72 74 72 72 72 70 66 65 63 63 64 63 65
20 24 26 30 34 38 42 46 49 53 54 59 62 62 62 60 62 65 67 70 72 72 73 73 72 71 72 72 72 71 70 71 73 68 69 70 68 66 65 63 63 64 66 68
26 25 29 35 41 44 47 49 53 58 56 58 65 64 65 62 63 65 68 73 74 70 71 69 69 69 71 68 70 66 68 68 70 66 66 68 66 65 63 62 61 64 66 66
Wind_Direction
276 281 294 300 305 301 301 301 305 303 307 299 305 305 298 324 336 337 305 310 317 318 337 338 333 335 336 337 337 336 336 340 341 343 340 339 338 336 335 334 331 329 331 334
284 292 296 298 301 293 280 284 290 295 303 314 334 355 350 345 341 336 337 342 337 335 316 321 323 327 331 333 335 341 341 340 341 340 339 337 338 336 335 335 335 333 333 332
289 301 300 284 291 293 289 288 291 293 300 306 327 336 335 330 329 332 328 326 322 318 317 321 324 328 333 341 347 346 343 342 340 339 338 338 336 337 337 338 339 339 336 333
301 312 297 305 307 314 314 313 315 320 327 334 335 337 337 335 338 339 342 342 345 346 346 345 348 352 357 352 347 344 342 340 339 337 334 335 336 336 338 339 338 336 332 331
301 307 302 289 313 310 312 314 321 325 333 335 336 339 337 343 350 353 358 3 3 4 4 6 5 4 358 351 350 346 343 341 339 338 336 335 333 332 335 336 337 337 338 338
305 305 301 313 325 315 316 315 323 330 327 333 336 327 330 345 356 1 4 6 7 10 12 8 1 358 351 346 343 338 339 337 337 337 337 337 335 332 333 334 334 335 337 339
300 304 302 301 318 319 308 312 325 332 334 335 333 338 345 354 354 1 4 8 14 10 3 359 357 352 345 342 338 338 338 339 337 338 335 336 338 336 335 334 333 335 336 337
309 307 302 320 320 309 325 338 339 341 344 345 348 347 353 357 358 1 3 3 4 4 360 357 353 348 341 334 339 339 338 337 337 337 337 338 336 337 338 337 337 335 335 336
315 319 322 334 358 354 343 337 336 339 340 347 349 350 355 357 359 357 359 0 2 357 352 350 348 343 338 340 340 339 339 336 336 336 336 335 335 337 338 339 337 336 336 335
315 316 329 345 347 348 346 342 343 341 341 341 342 350 355 357 357 358 357 355 353 349 344 340 344 344 343 341 341 338 336 335 335 335 335 335 335 335 336 337 337 337 336 335
304 326 332 325 328 334 343 348 349 348 347 349 360 354 355 354 355 355 353 350 347 344 346 344 343 341 340 338 337 334 332 332 333 333 332 333 332 332 333 336 335 336 336 334
297 307 312 320 331 345 345 346 350 352 354 359 3 2 0 356 355 352 350 349 349 347 344 342 341 340 341 338 334 331 329 328 327 327 328 329 328 329 330 330 332 331 330 329
303 323 335 341 345 348 348 349 352 355 358 359 1 2 359 356 355 355 353 350 346 345 345 344 341 339 339 338 333 328 324 323 323 323 323 324 324 325 326 330 329 329 329 329
329 337 324 324 330 346 352 355 359 3 5 6 5 5 3 1 359 354 353 353 350 346 345 344 343 340 337 335 332 330 327 324 322 321 321 320 319 319 321 323 325 329 331 330
316 323 334 347 348 349 355 358 357 359 1 359 1 2 3 360 355 353 352 349 348 346 344 342 340 338 339 338 335 332 330 327 325 323 321 318 315 315 315 319 321 323 328 329
336 341 339 338 342 348 352 354 356 355 360 359 359 358 357 356 355 352 351 349 346 343 342 342 341 343 342 339 336 332 330 329 328 326 324 321 318 317 313 320 319 323 326 326
324 317 326 331 339 345 343 355 2 360 0 0 359 359 358 356 353 350 349 348 347 346 346 346 343 341 339 337 335 333 331 330 330 330 328 325 320 319 320 323 322 325 328 329
323 325 329 336 346 351 355 360 3 3 0 1 -0 357 354 351 349 347 346 346 346 347 345 344 342 340 339 339 337 334 332 330 329 329 328 327 324 323 325 326 327 329 331 331
330 336 343 353 357 359 4 6 4 3 2 0 356 353 352 351 349 346 345 345 346 342 343 343 342 343 340 339 338 337 336 333 331 330 331 330 322 322 328 332 334 337 337 335
349 356 5 8 10 14 10 7 6 1 358 357 356 352 349 348 347 346 347 347 346 345 344 345 345 343 342 342 342 343 344 344 341 340 341 345 352 346 340 337 334 332 331 330
2 8 11 13 10 8 6 3 358 354 355 355 352 349 348 347 347 346 345 344 346 347 346 347 346 345 346 345 346 347 347 346 345 346 346 345 342 340 338 338 337 337 335 334
9 15 16 13 7 1 359 359 359 356 354 353 351 349 347 346 346 347 349 346 347 347 349 348 348 348 348 350 351 351 352 351 349 347 346 345 344 343 343 342 340 338 337 335
12 12 9 3 359 359 359 358 357 354 351 350 348 347 346 346 347 344 342 348 348 349 349 349 350 350 351 353 353 354 353 353 353 352 350 348 346 345 343 341 338 336 334 332
6 3 2 3 3 356 351 351 351 350 349 348 347 347 346 345 346 348 349 348 349 349 349 349 350 352 353 354 354 353 354 355 355 354 352 351 349 348 345 342 339 336 333 330
359 358 357 354 350 349 348 346 345 343 344 344 344 344 346 348 346 347 348 348 348 349 349 350 351 352 353 354 354 354 356 356 355 354 354 353 352 351 348 345 341 336 333 331
353 352 352 350 347 345 343 342 339 340 340 339 341 342 343 346 347 347 347 347 347 348 349 350 351 352 353 353 354 356 357 356 355 357 357 357 357 355 352 349 344 339 334 329
351 349 347 344 343 341 340 340 338 336 339 340 339 341 341 343 345 346 346 346 346 348 349 351 352 353 352 353 355 356 356 357 357 359 0 360 0 359 358 356 352 345 338 334